DKH1282 ZYCC-ZSPD

Flight info

Callsign DKH1282
Flight time N/A
Altitude 36100
Route LEMOT A588 BIDIB A345 DDG H114 DONVO A326 SURAK G455 MATNU
Aircraft A321/M-SDE2E3FGILRWXY/LB2

Departure

Time 2026-04-18 08:41
Airport Changchun Longjia International Airport (ZYCC)

Arrival

Time N/A
Airport Shanghai Pudong International Airport (ZSPD)
Time Latitude Longitude Altitude Speed Heading
2026-04-18 08:05 43.99345 125.68908 721 ft 0 kts 139°
2026-04-18 08:33 43.99350 125.68902 721 ft 2 kts 140°
2026-04-18 08:33 43.99365 125.68885 721 ft 3 kts 144°
2026-04-18 08:33 43.99382 125.68869 721 ft 3 kts 150°
2026-04-18 08:33 43.99400 125.68857 721 ft 3 kts 162°
2026-04-18 08:34 43.99419 125.68852 721 ft 3 kts 191°
2026-04-18 08:34 43.99431 125.68858 721 ft 1 kts 229°
2026-04-18 08:34 43.99432 125.68859 721 ft 0 kts 230°
2026-04-18 08:35 43.99428 125.68852 721 ft 3 kts 229°
2026-04-18 08:36 43.99399 125.68807 721 ft 8 kts 228°
2026-04-18 08:36 43.99358 125.68744 721 ft 9 kts 229°
2026-04-18 08:36 43.99313 125.68672 721 ft 11 kts 235°
2026-04-18 08:36 43.99314 125.68574 721 ft 12 kts 309°
2026-04-18 08:37 43.99364 125.68483 721 ft 12 kts 275°
2026-04-18 08:37 43.99321 125.68377 721 ft 14 kts 229°
2026-04-18 08:37 43.99241 125.68248 721 ft 21 kts 229°
2026-04-18 08:37 43.99143 125.68093 721 ft 22 kts 229°
2026-04-18 08:38 43.99039 125.67928 721 ft 23 kts 229°
2026-04-18 08:38 43.98929 125.67752 721 ft 25 kts 229°
2026-04-18 08:38 43.98830 125.67593 721 ft 20 kts 229°
2026-04-18 08:38 43.98734 125.67440 721 ft 22 kts 229°
2026-04-18 08:39 43.98643 125.67294 721 ft 17 kts 229°
2026-04-18 08:39 43.98584 125.67191 721 ft 12 kts 256°
2026-04-18 08:39 43.98629 125.67105 721 ft 12 kts 320°
2026-04-18 08:39 43.98704 125.67054 721 ft 13 kts 13°
2026-04-18 08:40 43.98777 125.67144 721 ft 20 kts 49°
2026-04-18 08:40 43.98993 125.67490 721 ft 84 kts 49°
2026-04-18 08:40 43.99531 125.68352 721 ft 150 kts 47°
2026-04-18 08:40 44.00305 125.69568 1053 ft 170 kts 47°
2026-04-18 08:41 44.01082 125.70787 1767 ft 172 kts 47°
2026-04-18 08:41 44.01900 125.72069 2413 ft 180 kts 47°
2026-04-18 08:41 44.02726 125.73445 2806 ft 194 kts 50°
2026-04-18 08:41 44.03618 125.74948 3167 ft 208 kts 49°
2026-04-18 08:42 44.04612 125.76556 3444 ft 229 kts 47°
2026-04-18 08:42 44.05696 125.78274 3868 ft 243 kts 47°
2026-04-18 08:42 44.06818 125.80081 4470 ft 249 kts 47°
2026-04-18 08:42 44.07951 125.81922 5158 ft 251 kts 47°
2026-04-18 08:43 44.09092 125.83781 5840 ft 254 kts 47°
2026-04-18 08:43 44.10247 125.85652 6484 ft 256 kts 46°
2026-04-18 08:43 44.11422 125.87542 6825 ft 260 kts 46°
2026-04-18 08:43 44.12602 125.89453 6880 ft 260 kts 46°
2026-04-18 08:44 44.13777 125.91362 6884 ft 260 kts 46°
2026-04-18 08:44 44.14952 125.93272 6883 ft 260 kts 46°
2026-04-18 08:44 44.16013 125.95311 6885 ft 263 kts 60°
2026-04-18 08:44 44.16485 125.97793 7017 ft 270 kts 86°
2026-04-18 08:45 44.16142 126.00392 7456 ft 279 kts 111°
2026-04-18 08:45 44.15051 126.02642 8072 ft 284 kts 136°
2026-04-18 08:45 44.13385 126.04094 8625 ft 286 kts 163°
2026-04-18 08:45 44.11423 126.04461 9175 ft 285 kts 189°
2026-04-18 08:46 44.09548 126.03706 9748 ft 280 kts 211°
2026-04-18 08:46 44.07829 126.02402 10319 ft 283 kts 216°
2026-04-18 08:46 44.06110 126.01022 10663 ft 297 kts 215°
2026-04-18 08:46 44.04235 125.99603 10873 ft 316 kts 213°
2026-04-18 08:47 44.02190 125.98149 11087 ft 334 kts 212°
2026-04-18 08:47 44.00085 125.96691 11324 ft 350 kts 212°
2026-04-18 08:47 43.97889 125.95179 11805 ft 356 kts 212°
2026-04-18 08:47 43.95666 125.93629 12409 ft 358 kts 213°
2026-04-18 08:48 43.93438 125.92056 12990 ft 361 kts 214°
2026-04-18 08:48 43.91209 125.90407 13507 ft 362 kts 219°
2026-04-18 08:48 43.89135 125.88445 13849 ft 362 kts 223°
2026-04-18 08:48 43.87107 125.86375 13858 ft 361 kts 224°
2026-04-18 08:49 43.85111 125.84279 13855 ft 360 kts 224°
2026-04-18 08:49 43.83134 125.82205 13946 ft 360 kts 224°
2026-04-18 08:49 43.81069 125.80122 14388 ft 367 kts 220°
2026-04-18 08:49 43.78874 125.78343 14934 ft 372 kts 217°
2026-04-18 08:50 43.76553 125.76612 15466 ft 377 kts 216°
2026-04-18 08:50 43.74219 125.74930 15972 ft 380 kts 215°
2026-04-18 08:50 43.71893 125.73250 16470 ft 383 kts 216°
2026-04-18 08:50 43.69525 125.71516 16951 ft 386 kts 216°
2026-04-18 08:51 43.67150 125.69754 17429 ft 389 kts 217°
2026-04-18 08:51 43.64756 125.67970 17891 ft 392 kts 217°
2026-04-18 08:51 43.62342 125.66175 18349 ft 395 kts 217°
2026-04-18 08:51 43.59906 125.64370 18785 ft 399 kts 217°
2026-04-18 08:52 43.57451 125.62563 19207 ft 403 kts 217°
2026-04-18 08:52 43.54961 125.60735 19619 ft 406 kts 217°
2026-04-18 08:52 43.52446 125.58909 19974 ft 412 kts 216°
2026-04-18 08:52 43.49917 125.57130 20430 ft 413 kts 215°
2026-04-18 08:53 43.47315 125.55321 20909 ft 414 kts 215°
2026-04-18 08:53 43.44745 125.53519 21291 ft 417 kts 216°
2026-04-18 08:53 43.42153 125.51684 21675 ft 419 kts 216°
2026-04-18 08:53 43.39581 125.49862 22054 ft 422 kts 216°
2026-04-18 08:54 43.36961 125.48007 22407 ft 425 kts 216°
2026-04-18 08:54 43.34331 125.46145 22785 ft 427 kts 216°
2026-04-18 08:54 43.31673 125.44268 23130 ft 430 kts 215°
2026-04-18 08:54 43.29008 125.42391 23475 ft 432 kts 215°
2026-04-18 08:55 43.26326 125.40499 23825 ft 434 kts 215°
2026-04-18 08:55 43.23633 125.38603 24156 ft 437 kts 215°
2026-04-18 08:55 43.20921 125.36704 24498 ft 438 kts 215°
2026-04-18 08:55 43.18200 125.34808 24862 ft 439 kts 215°
2026-04-18 08:56 43.15467 125.32892 25208 ft 440 kts 215°
2026-04-18 08:56 43.12746 125.30977 25541 ft 441 kts 215°
2026-04-18 08:56 43.10001 125.29044 25863 ft 442 kts 215°
2026-04-18 08:56 43.07263 125.27127 26194 ft 443 kts 215°
2026-04-18 08:57 43.01752 125.23292 26791 ft 445 kts 215°
2026-04-18 08:57 42.98992 125.21370 27095 ft 446 kts 215°
2026-04-18 08:57 42.96203 125.19470 27381 ft 450 kts 212°
2026-04-18 08:58 42.93207 125.18048 27627 ft 463 kts 201°
2026-04-18 08:58 42.89970 125.17512 27858 ft 477 kts 186°
2026-04-18 08:58 42.86635 125.17731 28127 ft 482 kts 182°
2026-04-18 08:58 42.83306 125.17708 28364 ft 474 kts 192°
2026-04-18 08:59 42.80156 125.16820 28586 ft 461 kts 207°
2026-04-18 08:59 42.77282 125.15053 28854 ft 451 kts 216°
2026-04-18 08:59 42.74541 125.13008 29056 ft 450 kts 218°
2026-04-18 08:59 42.71804 125.10900 29288 ft 451 kts 217°
2026-04-18 09:00 42.69041 125.08848 29516 ft 454 kts 216°
2026-04-18 09:00 42.66226 125.06876 29718 ft 456 kts 214°
2026-04-18 09:00 42.63383 125.04950 29939 ft 457 kts 214°
2026-04-18 09:00 42.60540 125.03021 30155 ft 457 kts 214°
2026-04-18 09:01 42.57717 125.01064 30412 ft 455 kts 215°
2026-04-18 09:01 42.54911 124.99087 30687 ft 454 kts 215°
2026-04-18 09:01 42.52100 124.97112 30874 ft 454 kts 215°
2026-04-18 09:01 42.49293 124.95149 31161 ft 452 kts 215°